THOR ABLESTAR DEB, 956

Orbit data source: Space-Track

THOR ABLESTAR DEB, 956 is space debris in LEO originally from a launch on Sun, 13 Dec 1964 UTC launched from the Air Force Western Test Range (AFWTR). Debris objects in space refer to the collection of defunct objects orbiting the Earth. Examples of debris include non-operational satellites, rocket bodies, and fragments generated from explosions, collisions, or faulty payload assembly.

Loading next visibility...
Identifier
956, 1964-083B
Orbit
LEO
Country
Flag of USUS
Related business
Manufacturer
Unknown
Mission
Spacecraft
Bus & Motor
Unknown
Mass
Unknown
Launch date (UTC)
1964-12-13 (62 years ago)
Launch vehicle
Unknown
Launch site
Air Force Western Test Range (AFWTR)
Object type
Payload
Rocket body
Debris
Shape & HBR
Unknown shape, 0.1 m
Radar Cross Section
Medium (>0.1 m² and <1 m²)

Expand to show TLE details & history
Last TLE update: 2 days ago

TLE from 2 days ago
0 THOR ABLESTAR DEB
1   956U 64083B   26171.24139087  .00000217  00000-0  24563-3 0  9995
2   956  89.9261 168.9456 0023624  19.0045 352.8209 13.67560490 56542
Epoch: 2026-06-20T05:47Z
TLE epoch observation values (Epoch: 2026-06-20T05:47:36.171Z)
Latitude
11.74613°
Longitude
173.60134°
Altitude
993.249 km
Speed
7.365 km/s
True Right ascension
11h 15m 50s
True Declination
11° 40' 48"
Sunlit
Object was in daylight at epoch
Visualization orbit readout
Latitude
Unknown
Longitude
Unknown
Altitude
Unknown
Speed
Unknown
Apparent Right ascension
Unknown
Apparent Declination
Unknown
Sunlit
N/A
Visualization observer readout
Local Sidereal Time
01:06:07
Azimuth
Unknown
Elevation
Unknown
Doppler factor
Unknown
Orbital elements
Apogee altitude
1,022.809 km
Perigee altitude
987.924 km
Semi-major axis
7,383.503 km
Eccentricity
0.00236
Inclination
89.9261°
RAAN
168.9456°
Arg. of periapsis
19.0045°
True anomaly
352.78697°
Mean anomaly
352.8209°
Eccentric anomaly
352.80394°
Mean motion
3.42097 °/min
Orbital period
105.23 mins
BSTAR
0.00024563
Loading maneuver chart data...
Computing Atmospheric mass density...

Documentation

Showing up to 5 results
|